Florence Regional Airport
KFLO : now visible

Airfield :











YOU CAN JOIN US ON...

 
LOGIN :

Register | Disclaimer

   EN    FR    IT 

 









Legend :    VFR   Marginal VFR   IFR   Intensive IFR   Very Intensive IFR
Visi :
Ceiling :
>= 8 km
>= 3000ft
5 to 8 km
1000 to 3000 ft
1500m to 5 km
500 to 1000 ft
800 to 1500m
200 to 500 ft
< 800m
< 200 ft
Symbols :   Thunderstorms  Fog  Heavy snow  Heavy precipitations  Wind > 20 kt






- Airport Elevation : 146 ft
- IATA code : FLO


KFLO - Florence Regional

CURRENT METAR :
  • 231753Z 07010G17KT 10SM CLR 29/14 A3015 RMK AO2 SLP208 T02890144 10289 20211 50004

EXPIRED METARs :
  • 231653Z 07010KT 10SM SCT080 28/16 A3016 RMK AO2 SLP209 T02830161
  • 231553Z 06012KT 10SM CLR 28/16 A3015 RMK AO2 SLP208 T02780156

TAF KFLO
Valid from the 23 at 18:00 until the 24 at 18:00 UTC


231720Z 2318/2418 05009KT P6SM FEW150
FM240300 07004KT P6SM SCT200
FM241300 05009KT P6SM FEW250
KZJX FIR / North America



MET'MAP, your aeronautical weather chart ! - Copyright ORBIFLY December 2007 - Disclaimer

ORBIFLY MET'MAP TEAM :

Programming & Development : Alexandra Zaïnal
Concept & original design : Baudouin d'Aumeries
Assistance for programming : Marc-Olivier Méhu
Technical & hardware support : Manuel Goepfert

Contact : metmap@orbifly.com




SOURCES & CREDITS :

   NOAA       Earth
Advisory